Weather History for Superior, WI

Change the Weather History Date:

Sunday, March 2, 2014

  Actual Average Record
Temperature  
Mean Temperature -8 °F -  
Max Temperature 5 °F 31 °F 49 °F (1961)
Min Temperature -22 °F 12 °F -22 °F (2014)
Degree Days  
Heating Degree Days 74    
Moisture  
Dew Point -21 °F    
Average Humidity 52    
Maximum Humidity 66    
Minimum Humidity 40    
Precipitation  
Precipitation 0.00 in - - ()
Sea Level Pressure  
Sea Level Pressure 30.49 in    
Wind  
Wind Speed 8 mph (West)    
Max Wind Speed 13 mph    
Max Gust Speed 18 mph    
Visibility 10 miles    
Events      
Averages and records for this station are not official NWS values.
T = Trace of Precipitation, MM = Missing Value Source: NWS Daily Summary

Daily Weather History Graph

Daily Weather History Graph

Search for Another Location

Airport:

Trip Planner

Search our weather history database for the weather conditions in past years. The results will help you decide how hot, cold, wet, or windy it might be!

Date:

Astronomy

Mar. 02, 2014 Rise Set
Actual Time 6:45 AM CST 5:55 PM CST
Civil Twilight 6:15 AM CST 6:26 PM CST
Nautical Twilight 5:40 AM CST 7:01 PM CST
Astronomical Twilight 5:05 AM CST 7:36 PM CST
Moon 7:10 AM CST (3/2) 8:01 PM CST (3/2)
Length of Visible Light 12h 10m
Length of Day
11h 09m
Waxing Crescent, 3% of the Moon is Illuminated
Mar 2
Waxing Crescent
Mar 8
First Quarter
Mar 16
Full
Mar 23
Last Quarter
Mar 30
New

Hourly Weather History & Observations

Time (CST) Temp. Windchill Dew Point Humidity Pressure Visibility Wind Dir Wind Speed Gust Speed Precip Events Conditions
12:15 AM -14.4 °F -30.3 °F -29.0 °F 48% 30.52 in 10.0 mi West 6.9 mph - N/A   Clear
12:30 AM -15.7 °F -35.7 °F -29.6 °F 50% 30.52 in 10.0 mi West 10.4 mph - N/A   Clear
12:55 AM -15.9 °F -36.0 °F -29.2 °F 51% 30.53 in 10.0 mi West 10.4 mph - N/A   Clear
1:15 AM -16.1 °F -32.3 °F -29.0 °F 52% 30.53 in 10.0 mi WNW 6.9 mph - N/A   Clear
1:35 AM -16.4 °F -32.7 °F -29.2 °F 52% 30.54 in 10.0 mi West 6.9 mph - N/A   Clear
1:55 AM -16.6 °F -32.9 °F -29.2 °F 53% 30.53 in 10.0 mi West 6.9 mph - N/A   Clear
2:15 AM -17.0 °F -36.1 °F -28.7 °F 55% 30.54 in 10.0 mi West 9.2 mph - N/A   Clear
2:35 AM -17.1 °F -31.9 °F -28.5 °F 56% 30.53 in 10.0 mi WSW 5.8 mph - N/A   Clear
2:55 AM -16.6 °F -32.9 °F -27.9 °F 56% 30.53 in 10.0 mi West 6.9 mph - N/A   Clear
3:15 AM -17.0 °F -33.4 °F -27.8 °F 58% 30.53 in 10.0 mi West 6.9 mph - N/A   Clear
3:35 AM -17.5 °F -32.3 °F -28.3 °F 58% 30.52 in 10.0 mi WSW 5.8 mph - N/A   Clear
3:55 AM -17.9 °F -34.5 °F -28.3 °F 59% 30.53 in 10.0 mi WSW 6.9 mph - N/A   Clear
4:15 AM -17.9 °F -32.8 °F -28.3 °F 59% 30.52 in 10.0 mi WSW 5.8 mph - N/A   Clear
4:35 AM -19.3 °F -36.2 °F -28.8 °F 62% 30.52 in 10.0 mi SW 6.9 mph - N/A   Clear
4:55 AM -19.3 °F -34.5 °F -28.7 °F 62% 30.52 in 10.0 mi WSW 5.8 mph - N/A   Clear
5:10 AM -19.7 °F -38.1 °F -29.2 °F 62% 30.52 in 10.0 mi SW 8.1 mph - N/A   Clear
5:35 AM -19.7 °F -36.6 °F -28.8 °F 63% 30.52 in 10.0 mi WSW 6.9 mph - N/A   Clear
5:55 AM -20.4 °F -37.5 °F -29.6 °F 63% 30.52 in 10.0 mi WSW 6.9 mph - N/A   Clear
6:15 AM -20.6 °F -36.0 °F -29.4 °F 64% 30.52 in 10.0 mi SW 5.8 mph - N/A   Clear
6:35 AM -21.8 °F -37.5 °F -30.1 °F 65% 30.51 in 10.0 mi SW 5.8 mph - N/A   Clear
6:55 AM -22.0 °F -39.4 °F -30.3 °F 65% 30.51 in 10.0 mi SW 6.9 mph - N/A   Clear
7:15 AM -21.3 °F -41.4 °F -29.4 °F 66% 30.51 in 10.0 mi SW 9.2 mph - N/A   Clear
7:35 AM -20.2 °F -40.1 °F -29.2 °F 63% 30.51 in 10.0 mi SW 9.2 mph - N/A   Clear
7:55 AM -19.1 °F -37.5 °F -28.5 °F 62% 30.51 in 10.0 mi SW 8.1 mph - N/A   Clear
8:15 AM -17.7 °F -35.7 °F -28.3 °F 58% 30.51 in 10.0 mi WSW 8.1 mph - N/A   Clear
8:35 AM -16.6 °F -34.4 °F -27.6 °F 58% 30.51 in 10.0 mi WSW 8.1 mph - N/A   Clear
8:55 AM -15.0 °F -32.4 °F -26.9 °F 55% 30.51 in 10.0 mi WSW 8.1 mph - N/A   Clear
9:15 AM -13.5 °F -31.9 °F -25.8 °F 54% 30.51 in 10.0 mi WSW 9.2 mph - N/A   Clear
9:35 AM -11.9 °F -31.0 °F -25.1 °F 52% 30.50 in 10.0 mi West 10.4 mph - N/A   Clear
9:50 AM -10.8 °F -28.6 °F -24.5 °F 51% 30.50 in 10.0 mi West 9.2 mph - N/A   Clear
10:15 AM -9.6 °F -27.0 °F -23.1 °F 52% 30.49 in 10.0 mi West 9.2 mph - N/A   Clear
10:35 AM -8.0 °F -26.1 °F -22.0 °F 50% 30.49 in 10.0 mi West 10.4 mph - N/A   Clear
10:55 AM -6.7 °F -25.5 °F -20.9 °F 50% 30.49 in 10.0 mi West 11.5 mph - N/A   Clear
11:15 AM -5.4 °F -23.9 °F -20.2 °F 49% 30.48 in 10.0 mi West 11.5 mph - N/A   Clear
11:35 AM -4.0 °F -22.1 °F -19.3 °F 48% 30.48 in 10.0 mi West 11.5 mph 16.1 mph N/A   Clear
11:55 AM -2.7 °F -17.5 °F -18.4 °F 47% 30.47 in 10.0 mi West 8.1 mph - N/A   Clear
12:15 PM -1.5 °F -18.1 °F -17.7 °F 46% 30.47 in 10.0 mi West 10.4 mph - N/A   Clear
12:35 PM -0.4 °F -13.4 °F -16.4 °F 47% 30.46 in 10.0 mi West 6.9 mph - N/A   Clear
12:55 PM 0.5 °F -14.6 °F -16.6 °F 45% 30.46 in 10.0 mi West 9.2 mph - N/A   Clear
1:15 PM 1.4 °F -14.5 °F -15.7 °F 45% 30.45 in 10.0 mi West 10.4 mph - N/A   Clear
1:35 PM 2.3 °F -13.4 °F -15.3 °F 44% 30.45 in 10.0 mi West 10.4 mph - N/A   Clear
1:55 PM 3.2 °F -12.2 °F -15.0 °F 43% 30.45 in 10.0 mi West 10.4 mph - N/A   Clear
2:15 PM 4.1 °F -12.0 °F -13.2 °F 45% 30.44 in 10.0 mi West 11.5 mph - N/A   Clear
2:35 PM 4.5 °F -10.7 °F -14.3 °F 42% 30.44 in 10.0 mi NW 10.4 mph 16.1 mph N/A   Clear
2:55 PM 4.8 °F -10.2 °F -13.7 °F 42% 30.44 in 10.0 mi WNW 10.4 mph - N/A   Clear
3:15 PM 5.0 °F -10.8 °F -14.1 °F 41% 30.43 in 10.0 mi WNW 11.5 mph - N/A   Clear
3:35 PM 5.7 °F -9.9 °F -13.9 °F 40% 30.43 in 10.0 mi WNW 11.5 mph 18.4 mph N/A   Clear
3:55 PM 5.7 °F -9.1 °F -13.9 °F 40% 30.43 in 10.0 mi WNW 10.4 mph - N/A   Clear
4:15 PM 5.7 °F -9.1 °F -14.1 °F 40% 30.43 in 10.0 mi WNW 10.4 mph - N/A   Clear
4:35 PM 5.4 °F -10.4 °F -13.4 °F 42% 30.43 in 10.0 mi WNW 11.5 mph - N/A   Clear
4:55 PM 4.8 °F -11.8 °F -14.1 °F 42% 30.44 in 10.0 mi NW 12.7 mph - N/A   Clear
5:15 PM 4.3 °F -10.0 °F -13.9 °F 43% 30.44 in 10.0 mi WNW 9.2 mph - N/A   Clear
5:35 PM 3.2 °F -9.1 °F -14.3 °F 44% 30.45 in 10.0 mi NW 6.9 mph - N/A   Clear
5:55 PM 2.7 °F -9.7 °F -14.8 °F 44% 30.44 in 10.0 mi NW 6.9 mph - N/A   Clear
6:15 PM 1.8 °F -12.0 °F -14.8 °F 46% 30.44 in 10.0 mi WNW 8.1 mph - N/A   Clear
6:35 PM -0.4 °F -12.0 °F -15.0 °F 50% 30.45 in 10.0 mi NW 5.8 mph - N/A   Clear
6:55 PM -0.4 °F -12.0 °F -15.3 °F 49% 30.45 in 10.0 mi NW 5.8 mph - N/A   Clear
7:15 PM -0.6 °F -12.2 °F -15.9 °F 49% 30.46 in 10.0 mi WNW 5.8 mph - N/A   Clear
7:35 PM -0.2 °F -11.8 °F -15.7 °F 48% 30.46 in 10.0 mi WNW 5.8 mph - N/A   Clear
7:55 PM -0.2 °F -10.1 °F -15.9 °F 48% 30.46 in 10.0 mi West 4.6 mph - N/A   Clear
8:15 PM -1.1 °F -12.9 °F -16.8 °F 48% 30.46 in 10.0 mi West 5.8 mph - N/A   Clear
8:35 PM -1.8 °F -16.4 °F -16.6 °F 50% 30.46 in 10.0 mi WNW 8.1 mph - N/A   Clear
8:55 PM -0.6 °F -16.0 °F -15.3 °F 50% 30.47 in 10.0 mi WNW 9.2 mph - N/A   Clear
9:15 PM -0.0 °F -15.3 °F -15.3 °F 49% 30.48 in 10.0 mi NW 9.2 mph - N/A   Clear
9:35 PM -1.7 °F -14.9 °F -16.2 °F 50% 30.48 in 10.0 mi NW 6.9 mph - N/A   Clear
9:55 PM -2.2 °F -15.6 °F -16.1 °F 52% 30.49 in 10.0 mi NW 6.9 mph - N/A   Clear
10:15 PM -3.1 °F -15.2 °F -16.2 °F 54% 30.49 in 10.0 mi WNW 5.8 mph - N/A   Clear
10:35 PM -4.4 °F -19.5 °F -17.5 °F 53% 30.49 in 10.0 mi NW 8.1 mph - N/A   Clear
10:55 PM -8.0 °F -22.5 °F -18.9 °F 59% 30.49 in 10.0 mi WNW 6.9 mph - N/A   Clear
11:15 PM -4.2 °F -12.6 °F -16.6 °F 55% 30.50 in 10.0 mi West 3.5 mph - N/A   Clear
11:35 PM -8.1 °F -21.2 °F -19.3 °F 58% 30.50 in 10.0 mi WNW 5.8 mph - N/A   Clear
11:55 PM -12.1 °F -24.0 °F -20.9 °F 65% 30.51 in 10.0 mi West 4.6 mph - N/A   Clear